Location: Unspecified
(0.0000°N, 0.0000°E)
Time: 22:56:09
(UTC+00:00)

deb Explorer IX - Visible Passes

Search period start: 19 November 2019 00:00
Search period end: 29 November 2019 00:00
Orbit: 546 x 1105 km, 38.8° (Epoch: 17 November)

Date Brightness Start Highest point End Pass type
(mag) Time Alt. Az. Time Alt. Az. Time Alt. Az.
19 Nov ? 18:37:39 10° SSE 18:39:15 11° SE 18:40:52 10° SE visible
19 Nov ? 20:20:01 10° SW 20:24:42 40° S 20:24:42 40° S visible
20 Nov ? 18:15:31 10° SSE 18:17:12 11° SE 18:18:55 10° SE visible
20 Nov ? 19:57:57 10° SW 20:04:07 53° SSE 20:04:07 53° SSE visible
21 Nov ? 19:35:54 10° SW 19:42:48 57° SE 19:43:35 54° ESE visible
21 Nov ? 21:23:59 10° W 21:24:58 14° W 21:24:58 14° W visible
22 Nov ? 19:13:52 10° SW 19:20:41 58° SE 19:23:05 40° E visible
22 Nov ? 21:01:58 10° W 21:04:29 20° W 21:04:29 20° W visible
23 Nov ? 18:51:52 10° SW 18:58:33 60° SE 19:02:38 27° ENE visible
23 Nov ? 20:39:58 10° W 20:44:02 26° WNW 20:44:02 26° WNW visible
24 Nov ? 18:29:52 10° SW 18:36:27 61° SE 18:42:12 17° ENE visible
24 Nov ? 20:17:58 10° W 20:23:36 29° NW 20:23:36 29° NW visible
25 Nov ? 18:07:53 10° SW 18:14:20 62° SE 18:21:28 10° ENE visible
25 Nov ? 19:56:01 10° W 20:01:53 29° NW 20:03:11 27° NNW visible
26 Nov ? 05:07:58 10° N 05:11:25 19° NE 05:14:37 10° E visible
26 Nov ? 19:34:05 10° W 19:39:47 28° NW 19:42:45 21° N visible
27 Nov ? 04:45:44 10° N 04:49:31 20° NE 04:52:56 10° E visible
27 Nov ? 19:12:10 10° W 19:17:41 26° NW 19:22:18 14° N visible
28 Nov ? 04:24:21 13° N 04:27:35 22° NE 04:31:15 10° E visible
28 Nov ? 18:50:16 10° W 18:55:36 25° NW 19:01:20 10° NNE visible
